This is the latest recevied weather packets stored in our database for station/object CX5ACA-13. If no packets are shown the sender has not sent any weather packets the latest 10 day(s).
| Time | Temp. | Humidity | Pressure | Rain* | Wind** | Luminosity | Snow |
|---|---|---|---|---|---|---|---|
| 1777570250 | 24.44° C | 43% | 1015.2 hPa | 0 mm | - | 437 W/m² | - |
| 1777569945 | 24.44° C | 43% | 1015.4 hPa | 0 mm | - | 443 W/m² | - |
| 1777569642 | 25° C | 44% | 1015.3 hPa | 0 mm | - | 455 W/m² | - |
| 1777569338 | 24.44° C | 43% | 1015.3 hPa | 0 mm | - | 459 W/m² | - |
| 1777569034 | 24.44° C | 43% | 1015.7 hPa | 0 mm | - | 467 W/m² | - |
| 1777568731 | 25° C | 45% | 1015.5 hPa | 0 mm | - | 475 W/m² | - |
| 1777568429 | 24.44° C | 44% | 1015.5 hPa | 0 mm | - | 478 W/m² | - |
| 1777568125 | 24.44° C | 45% | 1015.6 hPa | 0 mm | - | 487 W/m² | - |
| 1777567822 | 24.44° C | 46% | 1015.6 hPa | 0 mm | - | 489 W/m² | - |
| 1777567518 | 24.44° C | 44% | 1015.4 hPa | 0 mm | - | 493 W/m² | - |
| 1777567216 | 24.44° C | 46% | 1015.7 hPa | 0 mm | - | 504 W/m² | - |
| 1777566914 | 24.44° C | 46% | 1015.7 hPa | 0 mm | - | 511 W/m² | - |
| 1777566611 | 23.89° C | 46% | 1015.9 hPa | 0 mm | - | 514 W/m² | - |
| 1777566309 | 24.44° C | 46% | 1016 hPa | 0 mm | - | 516 W/m² | - |
| 1777566006 | 23.89° C | 45% | 1016 hPa | 0 mm | - | 523 W/m² | - |
| 1777565701 | 23.33° C | 47% | 1015.9 hPa | 0 mm | - | 523 W/m² | - |
| 1777565398 | 23.89° C | 48% | 1016.2 hPa | 0 mm | - | 523 W/m² | - |
| 1777565094 | 23.33° C | 50% | 1016.3 hPa | 0 mm | - | 523 W/m² | - |
| 1777564790 | 22.78° C | 51% | 1016.3 hPa | 0 mm | - | 526 W/m² | - |
| 1777564490 | 23.33° C | 51% | 1016.3 hPa | 0 mm | - | 526 W/m² | - |
| 1777564186 | 23.33° C | 50% | 1016.7 hPa | 0 mm | - | 524 W/m² | - |
| 1777563883 | 22.78° C | 51% | 1016.7 hPa | 0 mm | - | 527 W/m² | - |
| 1777563579 | 22.78° C | 52% | 1016.7 hPa | 0 mm | - | 523 W/m² | - |
| 1777563278 | 22.78° C | 54% | 1016.7 hPa | 0 mm | - | 523 W/m² | - |
| 1777562975 | 22.78° C | 52% | 1016.5 hPa | 0 mm | - | 523 W/m² | - |
* Rain latest hour (hover to see other rain measurements)
** Current wind speed in m/s (hover to see current wind gust speed)